Total_Precipitation_Accumulation
1.51 1.60 1.52 1.41 1.39 1.47 1.72 1.88 1.95 1.73 1.52 1.33 1.19 0.95 0.93 0.83 0.76 0.66 0.58 0.41 0.29 0.25 0.22 0.22 0.24 0.28 0.31 0.38 0.46 0.55 0.64 0.74 0.85 0.98 1.05 1.10 1.16 1.22
1.55 1.63 1.66 1.60 1.60 1.63 1.75 1.91 2.00 2.00 1.69 1.43 1.39 1.14 1.00 0.81 0.73 0.66 0.53 0.41 0.30 0.25 0.22 0.19 0.18 0.21 0.24 0.27 0.31 0.36 0.42 0.50 0.60 0.71 0.82 0.87 0.89 0.95
1.28 1.39 1.52 1.67 1.68 1.70 1.75 1.80 1.91 2.03 1.75 1.70 1.81 1.64 1.41 1.15 0.92 0.76 0.58 0.51 0.39 0.29 0.24 0.22 0.21 0.21 0.24 0.28 0.28 0.30 0.34 0.40 0.45 0.53 0.64 0.72 0.73 0.78
1.13 1.18 1.17 1.24 1.34 1.43 1.53 1.67 1.80 1.97 1.87 1.90 2.10 2.08 1.80 1.44 1.23 1.02 0.75 0.60 0.49 0.40 0.29 0.23 0.23 0.23 0.24 0.28 0.31 0.34 0.34 0.37 0.42 0.47 0.53 0.61 0.69 0.75
0.93 0.93 0.87 0.90 0.97 1.10 1.17 1.34 1.54 1.82 1.91 2.00 2.22 2.19 1.96 1.69 1.50 1.19 0.97 0.85 0.62 0.52 0.40 0.28 0.22 0.23 0.26 0.27 0.31 0.38 0.39 0.38 0.39 0.44 0.52 0.59 0.67 0.75
0.70 0.66 0.66 0.75 0.81 0.91 1.03 1.09 1.23 1.45 1.62 1.82 2.08 2.14 2.01 1.90 1.75 1.41 1.18 1.06 0.83 0.62 0.56 0.40 0.32 0.27 0.26 0.28 0.32 0.38 0.48 0.52 0.52 0.53 0.57 0.63 0.67 0.71
0.61 0.51 0.49 0.56 0.62 0.69 0.77 0.92 1.03 1.21 1.34 1.55 1.83 2.07 1.94 1.82 1.70 1.58 1.39 1.27 1.11 0.86 0.79 0.62 0.48 0.38 0.31 0.29 0.32 0.41 0.57 0.68 0.70 0.71 0.73 0.76 0.81 0.84
0.53 0.44 0.38 0.40 0.47 0.53 0.63 0.71 0.82 0.95 1.11 1.36 1.60 1.78 1.71 1.65 1.69 1.71 1.63 1.42 1.33 1.14 1.10 1.05 0.90 0.79 0.59 0.40 0.34 0.36 0.49 0.71 0.84 0.85 0.89 0.91 0.94 0.97
0.41 0.44 0.37 0.34 0.39 0.43 0.49 0.50 0.60 0.72 0.85 1.08 1.29 1.46 1.59 1.57 1.70 1.81 1.82 1.74 1.64 1.49 1.47 1.51 1.42 1.33 0.87 0.69 0.60 0.48 0.44 0.50 0.66 0.78 0.83 0.92 0.97 1.01
0.34 0.35 0.38 0.40 0.38 0.36 0.42 0.45 0.43 0.48 0.56 0.64 0.84 1.14 1.60 1.78 1.71 1.79 1.92 1.92 1.84 1.77 1.72 1.83 1.68 1.63 1.28 0.89 0.67 0.48 0.42 0.41 0.48 0.60 0.71 0.80 0.93 1.05
0.33 0.30 0.30 0.34 0.37 0.32 0.36 0.39 0.39 0.40 0.46 0.55 0.69 0.94 1.22 1.52 1.65 1.67 1.74 1.82 1.96 1.93 1.81 1.87 1.82 1.70 1.71 1.47 0.97 0.61 0.40 0.35 0.39 0.46 0.56 0.67 0.78 0.91
0.38 0.33 0.27 0.26 0.28 0.27 0.33 0.35 0.34 0.34 0.36 0.44 0.52 0.67 0.88 1.06 1.10 1.06 1.12 1.20 1.36 1.51 1.42 1.55 1.77 1.76 1.93 2.00 1.61 1.09 0.74 0.53 0.42 0.40 0.45 0.53 0.64 0.67
0.43 0.39 0.33 0.25 0.23 0.24 0.29 0.35 0.35 0.36 0.41 0.47 0.50 0.55 0.75 0.93 0.97 0.90 0.91 0.94 0.94 0.93 0.84 0.86 1.09 1.24 1.51 1.86 1.82 1.45 1.15 0.94 0.72 0.57 0.50 0.52 0.59 0.65
0.54 0.48 0.42 0.30 0.27 0.27 0.27 0.32 0.33 0.31 0.38 0.46 0.49 0.50 0.56 0.71 0.82 0.82 0.81 0.85 0.87 0.82 0.67 0.63 0.73 0.72 0.74 0.98 1.23 1.21 1.08 1.03 1.03 0.99 0.85 0.76 0.70 0.72
0.60 0.56 0.45 0.36 0.33 0.31 0.29 0.32 0.35 0.33 0.35 0.39 0.43 0.42 0.42 0.52 0.69 0.81 0.81 0.82 0.86 0.83 0.70 0.54 0.50 0.53 0.57 0.62 0.71 0.76 0.79 0.85 0.99 1.15 1.18 1.06 0.95 0.88
0.61 0.60 0.50 0.41 0.39 0.39 0.33 0.32 0.34 0.37 0.37 0.36 0.38 0.43 0.44 0.51 0.62 0.71 0.76 0.76 0.77 0.78 0.72 0.60 0.47 0.44 0.47 0.49 0.49 0.52 0.56 0.64 0.73 0.91 1.14 1.27 1.25 1.18
0.72 0.74 0.71 0.60 0.50 0.48 0.43 0.40 0.40 0.42 0.41 0.41 0.43 0.46 0.46 0.50 0.57 0.60 0.66 0.69 0.62 0.59 0.59 0.59 0.54 0.47 0.43 0.43 0.46 0.44 0.43 0.47 0.54 0.60 0.70 0.84 0.92 0.96
0.72 0.78 0.79 0.75 0.65 0.61 0.56 0.52 0.49 0.46 0.44 0.44 0.44 0.45 0.45 0.46 0.54 0.56 0.56 0.58 0.58 0.51 0.49 0.49 0.49 0.51 0.51 0.48 0.37 0.35 0.36 0.37 0.39 0.43 0.45 0.51 0.52 0.46
0.71 0.77 0.75 0.73 0.70 0.67 0.65 0.59 0.54 0.52 0.52 0.49 0.46 0.45 0.45 0.46 0.51 0.52 0.50 0.49 0.53 0.51 0.47 0.45 0.43 0.42 0.42 0.42 0.36 0.22 0.23 0.28 0.31 0.34 0.35 0.34 0.36 0.31
0.67 0.76 0.76 0.72 0.68 0.65 0.63 0.60 0.57 0.59 0.62 0.57 0.51 0.48 0.46 0.46 0.50 0.47 0.44 0.41 0.43 0.46 0.46 0.42 0.39 0.39 0.37 0.35 0.35 0.32 0.19 0.18 0.21 0.22 0.23 0.24 0.25 0.20
0.68 0.78 0.80 0.73 0.66 0.63 0.60 0.58 0.56 0.56 0.60 0.59 0.53 0.48 0.48 0.47 0.47 0.44 0.42 0.41 0.39 0.39 0.39 0.34 0.31 0.36 0.41 0.46 0.46 0.48 0.41 0.25 0.19 0.18 0.17 0.19 0.23 0.25
0.66 0.74 0.74 0.66 0.61 0.59 0.56 0.55 0.56 0.59 0.60 0.58 0.51 0.45 0.46 0.48 0.45 0.43 0.41 0.37 0.34 0.33 0.36 0.37 0.38 0.39 0.41 0.46 0.46 0.47 0.48 0.41 0.33 0.26 0.23 0.18 0.15 0.17
0.64 0.67 0.63 0.57 0.54 0.51 0.48 0.49 0.54 0.59 0.58 0.55 0.50 0.43 0.42 0.46 0.44 0.43 0.41 0.38 0.37 0.37 0.40 0.44 0.45 0.45 0.43 0.39 0.39 0.41 0.43 0.43 0.43 0.42 0.39 0.26 0.13 0.09